Voltar ao catálogo

KUIPER-00078

AtivoComunicaçõesLEO
NORAD 64825·PAYLOAD·🇺🇸 United States

Lançado Jul 16, 2025 de Cape Canaveral Space Force Station

Loading…

Próximas Passagens (próximas 24 horas)

TLE

AtualizadoSource: CelesTrak SupGP

Época: Sep 15, 2026, 04:15 UTC

1 64825C 25151K   26258.17721065  .00006514  00000+0  85273-3 0  2582
2 64825  51.8990 177.6816 0001064  84.3211  45.4465 14.79924146    11

Acompanhe KUIPER-00078 em tempo real com AllMySat

Download on the App Store